Location: Newark
(54.4000°N, 32.4500°E)
Time: 13:38:09
(UTC+00:00)

Envisat - Pass Details

Date: 19 January 2020
Orbit: 764 x 766 km, 98.1° (Epoch: 24 February)

Event Time Altitude Azimuth Distance (km) Brightness Sun altitude
Rises 03:11:57 0° 25° (NNE) 3,248 6.5 -23.5°
Reaches altitude 10° 03:15:10 10° 47° (NE) 2,315 6.0 -23.1°
Maximum altitude 03:18:20 16° 85° (E) 1,901 6.0 -22.6°
Drops below altitude 10° 03:21:29 10° 124° (SE) 2,303 6.3 -22.1°
Sets 03:24:39 0° 145° (SE) 3,223 6.8 -21.7°
